When you browse on this site, cookies collect data to enhance your experience and personalize the content and advertising you see.
Visit our Privacy Policy to learn more. By continuing to use the site, you agree to this use of cookies and data.
  • In United Kingdom
  • List of Countries
  • For 7 days
  • Water Temperature
  • Weather Map
  • Weather Widgets
  • user-avatar
    Login

    Hourly Weather Pechi

    Today, 19 October, Saturday

    Time Temperature Precipitation Wind Pressure Humidity
    00:00 +12°C° 0 mm 2 mps 752 mmHg 72%
    01:00 +12°C° 0 mm 2 mps 752 mmHg 73%
    02:00 +11°C° 0 mm 1 mps 752 mmHg 74%
    03:00 +10°C° 0 mm 2 mps 752 mmHg 75%
    04:00 +10°C° 0 mm 2 mps 752 mmHg 76%
    05:00 +10°C° 0 mm 2 mps 752 mmHg 77%
    06:00 +12°C° 0 mm 2 mps 753 mmHg 76%
    07:00 +12°C° 0 mm 2 mps 753 mmHg 75%
    08:00 +13°C° 0 mm 2 mps 753 mmHg 72%
    09:00 +15°C° 0 mm 2 mps 753 mmHg 66%
    10:00 +17°C° 0 mm 2 mps 753 mmHg 61%
    11:00 +19°C° 0 mm 2 mps 753 mmHg 56%
    12:00 +20°C° 0 mm 2 mps 753 mmHg 53%
    13:00 +20°C° 0 mm 3 mps 753 mmHg 51%
    14:00 +23°C° 0 mm 2 mps 753 mmHg 48%
    15:00 +20°C° 0 mm 2 mps 753 mmHg 53%
    16:00 +19°C° 0 mm 2 mps 753 mmHg 58%
    17:00 +17°C° 0 mm 2 mps 752 mmHg 63%
    18:00 +16°C° 0 mm 2 mps 753 mmHg 65%
    19:00 +16°C° 0 mm 2 mps 753 mmHg 67%
    20:00 +15°C° 0 mm 2 mps 753 mmHg 69%
    21:00 +15°C° 0 mm 2 mps 753 mmHg 69%
    22:00 +14°C° 0 mm 2 mps 753 mmHg 70%
    23:00 +13°C° 0 mm 3 mps 753 mmHg 70%

    Tomorrow, 20 October, Sunday

    Time Temperature Precipitation Wind Pressure Humidity
    00:00 +13°C° 0 mm 2 mps 753 mmHg 70%
    01:00 +13°C° 0 mm 2 mps 754 mmHg 70%
    02:00 +13°C° 0 mm 2 mps 754 mmHg 69%
    03:00 +12°C° 0 mm 2 mps 754 mmHg 70%
    04:00 +12°C° 0 mm 2 mps 754 mmHg 72%
    05:00 +12°C° 0 mm 2 mps 754 mmHg 73%
    06:00 +12°C° 0 mm 2 mps 754 mmHg 72%
    07:00 +12°C° 0 mm 3 mps 754 mmHg 70%
    08:00 +13°C° 0 mm 3 mps 754 mmHg 69%
    09:00 +14°C° 0 mm 3 mps 754 mmHg 63%
    10:00 +17°C° 0 mm 3 mps 755 mmHg 57%
    11:00 +19°C° 0 mm 4 mps 755 mmHg 52%
    12:00 +20°C° 0 mm 4 mps 755 mmHg 49%
    13:00 +20°C° 0 mm 4 mps 754 mmHg 47%
    14:00 +21°C° 0 mm 4 mps 754 mmHg 44%
    15:00 +20°C° 0 mm 3 mps 754 mmHg 49%
    16:00 +18°C° 0 mm 3 mps 754 mmHg 54%
    17:00 +17°C° 0 mm 2 mps 754 mmHg 58%
    18:00 +16°C° 0 mm 3 mps 754 mmHg 60%
    19:00 +14°C° 0 mm 3 mps 754 mmHg 62%
    20:00 +14°C° 0 mm 3 mps 754 mmHg 63%
    21:00 +13°C° 0 mm 3 mps 755 mmHg 64%
    22:00 +13°C° 0 mm 3 mps 755 mmHg 64%
    23:00 +13°C° 0 mm 3 mps 755 mmHg 65%

    Day after tomorrow, 21 October, Monday

    Time Temperature Precipitation Wind Pressure Humidity
    00:00 +12°C° 0 mm 3 mps 755 mmHg 66%
    01:00 +12°C° 0 mm 3 mps 755 mmHg 66%
    02:00 +12°C° 0 mm 3 mps 755 mmHg 66%
    03:00 +12°C° 0 mm 3 mps 755 mmHg 68%
    04:00 +11°C° 0 mm 3 mps 755 mmHg 69%
    05:00 +11°C° 0 mm 3 mps 755 mmHg 70%
    06:00 +12°C° 0 mm 3 mps 755 mmHg 68%
    07:00 +12°C° 0 mm 3 mps 755 mmHg 67%
    08:00 +13°C° 0 mm 3 mps 755 mmHg 65%
    09:00 +16°C° 0 mm 3 mps 755 mmHg 60%
    10:00 +18°C° 0 mm 3 mps 755 mmHg 55%
    11:00 +19°C° 0 mm 4 mps 755 mmHg 50%
    12:00 +20°C° 0 mm 4 mps 755 mmHg 48%
    13:00 +21°C° 0 mm 4 mps 755 mmHg 46%
    14:00 +22°C° 0 mm 4 mps 755 mmHg 44%
    15:00 +20°C° 0 mm 3 mps 755 mmHg 49%
    16:00 +19°C° 0 mm 3 mps 754 mmHg 54%
    17:00 +17°C° 0 mm 3 mps 754 mmHg 59%
    18:00 +17°C° 0 mm 3 mps 754 mmHg 60%
    19:00 +16°C° 0 mm 3 mps 754 mmHg 61%
    20:00 +16°C° 0 mm 3 mps 754 mmHg 62%
    21:00 +14°C° 0 mm 3 mps 754 mmHg 63%
    22:00 +14°C° 0 mm 3 mps 754 mmHg 64%
    23:00 +13°C° 0 mm 3 mps 754 mmHg 65%

    22 October, Tuesday

    Time Temperature Precipitation Wind Pressure Humidity
    00:00 +13°C° 0 mm 3 mps 754 mmHg 65%
    01:00 +13°C° 0 mm 3 mps 754 mmHg 66%
    02:00 +12°C° 0 mm 3 mps 755 mmHg 66%
    03:00 +12°C° 0 mm 3 mps 754 mmHg 67%
    04:00 +12°C° 0 mm 3 mps 754 mmHg 67%
    05:00 +12°C° 0 mm 3 mps 754 mmHg 67%
    06:00 +13°C° 0 mm 2 mps 754 mmHg 66%
    07:00 +13°C° 0 mm 2 mps 755 mmHg 65%
    08:00 +14°C° 0 mm 2 mps 755 mmHg 64%
    09:00 +16°C° 0 mm 2 mps 755 mmHg 59%
    10:00 +18°C° 0 mm 3 mps 755 mmHg 53%
    11:00 +19°C° 0 mm 3 mps 755 mmHg 48%
    12:00 +20°C° 0 mm 3 mps 755 mmHg 46%
    13:00 +21°C° 0 mm 2 mps 755 mmHg 45%
    14:00 +23°C° 0 mm 2 mps 755 mmHg 43%
    15:00 +20°C° 0 mm 2 mps 754 mmHg 48%
    16:00 +19°C° 0 mm 2 mps 754 mmHg 53%
    17:00 +18°C° 0 mm 1 mps 754 mmHg 58%
    18:00 +18°C° 0 mm 1 mps 754 mmHg 60%
    19:00 +16°C° 0 mm 1 mps 754 mmHg 62%
    20:00 +15°C° 0 mm 1 mps 754 mmHg 64%
    21:00 +15°C° 0 mm 1 mps 754 mmHg 65%
    22:00 +15°C° 0 mm 1 mps 754 mmHg 67%
    23:00 +14°C° 0 mm 1 mps 754 mmHg 68%

    23 October, Wednesday

    Time Temperature Precipitation Wind Pressure Humidity
    00:00 +14°C° 0 mm 1 mps 754 mmHg 69%
    01:00 +14°C° 0 mm 1 mps 754 mmHg 71%
    02:00 +14°C° 0 mm 1 mps 754 mmHg 72%
    03:00 +13°C° 0 mm 2 mps 754 mmHg 74%
    04:00 +13°C° 0 mm 2 mps 754 mmHg 76%
    05:00 +13°C° 0 mm 2 mps 754 mmHg 78%
    06:00 +13°C° 0 mm 2 mps 754 mmHg 78%
    07:00 +14°C° 0 mm 2 mps 754 mmHg 78%
    08:00 +14°C° 0 mm 2 mps 754 mmHg 77%
    09:00 +16°C° 0 mm 2 mps 754 mmHg 72%
    10:00 +17°C° 0 mm 3 mps 754 mmHg 67%
    11:00 +19°C° 0 mm 3 mps 754 mmHg 61%
    12:00 +20°C° 0 mm 3 mps 753 mmHg 59%
    13:00 +20°C° 0 mm 3 mps 753 mmHg 58%
    14:00 +21°C° 0 mm 4 mps 753 mmHg 56%
    15:00 +19°C° 0 mm 3 mps 752 mmHg 60%
    16:00 +18°C° 0 mm 3 mps 752 mmHg 65%
    17:00 +17°C° 0 mm 3 mps 752 mmHg 69%
    18:00 +16°C° 0 mm 2 mps 752 mmHg 71%
    19:00 +16°C° 0 mm 2 mps 752 mmHg 74%
    20:00 +15°C° 0 mm 2 mps 752 mmHg 76%
    21:00 +15°C° 0 mm 2 mps 752 mmHg 79%
    22:00 +15°C° 0 mm 2 mps 752 mmHg 81%
    23:00 +14°C° 0 mm 2 mps 752 mmHg 83%

    24 October, Thursday

    Time Temperature Precipitation Wind Pressure Humidity
    00:00 +14°C° 0 mm 2 mps 752 mmHg 86%
    01:00 +13°C° 0 mm 2 mps 752 mmHg 89%
    02:00 +13°C° 0 mm 2 mps 752 mmHg 91%
    03:00 +13°C° 0 mm 2 mps 752 mmHg 92%
    04:00 +13°C° 0 mm 2 mps 752 mmHg 92%
    05:00 +12°C° 0 mm 2 mps 752 mmHg 92%
    06:00 +13°C° 0 mm 2 mps 752 mmHg 91%
    07:00 +13°C° 0 mm 2 mps 752 mmHg 89%
    08:00 +13°C° 0 mm 2 mps 753 mmHg 88%
    09:00 +15°C° 0 mm 1 mps 753 mmHg 82%
    10:00 +16°C° 0 mm 1 mps 753 mmHg 75%
    11:00 +19°C° 0 mm 1 mps 753 mmHg 69%
    12:00 +19°C° 0 mm 1 mps 753 mmHg 66%
    13:00 +20°C° 0 mm 1 mps 753 mmHg 63%
    14:00 +20°C° 0 mm 1 mps 753 mmHg 60%
    15:00 +19°C° 0 mm 1 mps 753 mmHg 64%
    16:00 +18°C° 0 mm 1 mps 753 mmHg 69%
    17:00 +15°C° 0 mm 0 mps 752 mmHg 73%
    18:00 +16°C° 0 mm 1 mps 753 mmHg 73%
    19:00 +16°C° 0 mm 1 mps 753 mmHg 74%
    20:00 +16°C° 0 mm 1 mps 753 mmHg 74%
    21:00 +15°C° 0 mm 1 mps 753 mmHg 77%
    22:00 +15°C° 0 mm 2 mps 753 mmHg 79%
    23:00 +14°C° 0 mm 2 mps 753 mmHg 82%
    Show more